SUPERVIEW NEO-2 03

导读

SUPERVIEW NEO-2 03是中国于北京时间2024年11月24日08:00发射的商业光学遥感卫星,隶属于“景观”NEO-2卫星星座。该卫星凭借高分辨率成像能力,可提供亚米级对地观测数据,能在国土测绘、城市规划、环境监测、灾害评估等领域提供高精度空间信息支撑,进一步丰富了中国商业遥感卫星的服务能力。

Basic Information
目录编号:
62079
目录名称:
SUPERVIEW NEO-2 03
国际标识:
2024-218B
轨道中心:
EARTH
卫星名称:
SUPERVIEW NEO-2 03
卫星全名:
SUPERVIEW NEO-2 03
卫星状态:
在轨 (已飞行567 天)
发射日期:
2024-11-24 UTC
国别 :
中国 (CN)
星等 :
--
Orbit Information
数据来源 国际轨道数据
星历时间: 2026-06-13T18:19:35+0800
23小时前
查看轨道信息
半长轴: 6884.827km
偏心率: 0.0001608
轨道倾角: 97.440°
近地点辐角 84.000°
升交点赤经 171.816°
平近点角 276.141°
近地点: 505.582km
远地点: 507.798km
周期: 94.754分钟
每日圈数: 15.197189
Detailed Information
使用方式:
暂无
2D Orbit Map
3D Orbit Map
Orbit Altitude Analysis Chart
Orbit Inclination Analysis Chart
Orbit Comprehensive Analysis Chart
View Comprehensive Chart